Weather Roundup
Issued by NWS Springfield, MO

Home | Current Version | Previous Version | Text Only | Print | Product List | Glossary On
Versions: 1 2 3 4 5 6 7 8 9 10 11 12 13 14 15 16 17 18 19 20 21 22 23 24 25 26 27 28 29 30 31 32 33 34 35 36 37 38 39 40 41 42 43 44 45 46 47 48 49 50
000
NZUS99 KSGF 230907
HRRSGF

HOURLY WEATHER
NATIONAL WEATHER SERVICE SPRINGFIELD MO
400 AM CDT WED APR 23 2014

......SGF CWA......

CITY           SKY/WX    TMP DP  RH WIND       PRES   REMARKS
SPRINGFIELD    CLEAR     51  35  54 SE10      29.99S
JOPLIN         PTCLDY    49  38  65 E8        29.97F
WEST PLAINS    CLEAR     49  32  52 E5        30.03S
ROLLA          CLEAR     47  33  58 E8        30.00F
OSAGE BEACH    CLEAR     45  34  65 SE5       30.03R
BRANSON        CLEAR     52  36  54 E7        30.02R

......SURROUNDING SGF CWA......

CITY           SKY/WX    TMP DP  RH WIND       PRES   REMARKS
CHANUTE        MOCLDY    54  38  54 E8        29.95S
PARSONS        CLEAR     55  36  48 E3        29.95F
COFFEYVILLE    PTCLDY    48  40  73 CALM      29.94S
EMPORIA        LGT RAIN  54  37  52 SE12G20   29.93F
GROVE OK       CLEAR     46  46 100 CALM      29.97F
ROGERS AR      CLEAR     50  43  77 E9        29.99S
SILOAM SPRINGS CLEAR     52  36  54 E5        29.98S
HARRISON AR    CLEAR     51  37  58 SE3       30.01R
NEAR YELLVILLE CLEAR     45  36  70 CALM      30.02R

......KANSAS AND MISSOURI......

CITY           SKY/WX    TMP DP  RH WIND       PRES   REMARKS
KANSAS CTY INT CLOUDY    55  34  45 SE12      29.99R
DOWNTOWN KC    MOCLDY    58  34  40 E8        29.99R
COLUMBIA       CLEAR     47  35  63 E9        30.01F
SEDALIA        CLEAR     50  35  56 SE3       30.03R
ST JOSEPH      CLOUDY    55  34  45 E5        30.01R
ST LOUIS       PTCLDY    51  32  48 NE7       30.05R
SPIRIT OF STL  CLEAR     39  36  89 SW3       30.04R
KIRKSVILLE     CLEAR     45  32  60 E8        30.04S
WICHITA        MOCLDY    57  35  43 SE9       29.89S
TOPEKA         CLOUDY    55  40  56 E7        29.96F
OLATHE         MOCLDY    54  34  46 E7        29.99R

......TENNESSEE......

CITY           SKY/WX    TMP DP  RH WIND       PRES   REMARKS
MEMPHIS        CLEAR     57  41  55 NE10G20   30.00R
NASHVILLE      CLEAR     50  39  66 N7        29.98R

......ARKANSAS.......

CITY           SKY/WX    TMP DP  RH WIND       PRES   REMARKS
FAYETTEVILLE   CLEAR     42  41  96 CALM      29.99S
FT SMITH       CLEAR     52  45  77 E5        29.96S
LITTLE ROCK    CLEAR     52  48  86 CALM      29.98R

......OKLAHOMA.......

CITY           SKY/WX    TMP DP  RH WIND       PRES   REMARKS
TULSA          CLEAR     53  42  66 SE7       29.92S
PONCA CITY     CLEAR     56  36  47 SE10      29.89F
MCALESTER      CLEAR     52  43  71 CALM      29.94S
OKLAHOMA CITY  PTCLDY    52  42  69 S7        29.90F

......IOWA............

CITY           SKY/WX    TMP DP  RH WIND       PRES   REMARKS
DES MOINES     MOCLDY    52  32  46 E9        30.03S
QUAD CITIES    PTCLDY    35  30  82 E5        30.11R WCI  31

......ILLINOIS........

CITY           SKY/WX    TMP DP  RH WIND       PRES   REMARKS
QUINCY         PTCLDY    47  31  53 E10       30.06R
CHICAGO        CLEAR     36  26  67 N6        30.13R WCI  31




USA.gov is the U.S. government's official web portal to all federal, state and local government web resources and services.